Flag for U.S.A. Weather past 2 weeks in Redlands, California, U.S.A.

Now
60 °F

Clear.


Feels Like: 60 °F
Forecast: 57 / 82 °F
Wind: No wind

Location: Riverside / March Air Force Base

Current Time: Sep 3, 2015 at 4:09:56 AM

Latest Report: Sep 3, 2015 at 2:58 AM


Visibility: 10 mi

Pressure: 29.90 "Hg

Humidity: 89%

Dew point: 57 °F

Location of RedlandsLocation

Historic Weather in Redlands — Graph

°F

Redlands temperature yesterday

Maximum temperature yesterday: 87 °F (at 3:58 PM)
Minimum temperature yesterday: 64 °F (at 11:58 PM)
Average temperature yesterday: 72 °F

Past Weeks' High & Low Weather Summary

 TemperatureHumidityPressure
High103 °F (Aug 28, 2:58 PM)100% (Aug 20, 4:02 AM)29.99 "Hg (Aug 20, 4:02 AM)
Low60 °F (Sep 3, 2:58 AM)16% (Aug 28, 3:58 PM)29.79 "Hg (Aug 20, 4:58 PM)
Average77 °F57%29.89 "Hg
* Reported Aug 19 2:58 AM — Sep 3 2:58 AM, Redlands, Weather by CustomWeather, © 2015

Note: Actual official high and low records may vary slightly from our data, if they occured in-between our weather recording intervals... More about our weather records

Advertising

Redlands weather history for previous 24 hours

 ConditionsComfort  
Time TempWeatherWind HumidityBarometerVisibility
2:58 AM
Thu, Sep 3
60 °FClear.No wind89%29.90 "Hg10 mi
1:58 AM61 °FClear.2 mph93%29.90 "Hg10 mi
12:58 AM62 °FClear.1 mph91%29.91 "Hg10 mi
11:58 PM
Wed, Sep 2
64 °FClear.1 mph85%29.93 "Hg10 mi
10:58 PM65 °FClear.3 mph81%29.93 "Hg10 mi
9:58 PM69 °FClear.7 mph72%29.91 "Hg10 mi
8:58 PM71 °FClear.6 mph66%29.90 "Hg10 mi
7:58 PM74 °FSunny.8 mph59%29.87 "Hg10 mi
6:58 PM77 °FSunny.9 mph52%29.85 "Hg10 mi
5:58 PM82 °FSunny.10 mph44%29.85 "Hg10 mi
4:58 PM85 °FSunny.13 mph39%29.85 "Hg10 mi
3:58 PM87 °FSunny.10 mph33%29.85 "Hg10 mi
2:58 PM85 °FSunny.8 mph36%29.87 "Hg10 mi
1:58 PM85 °FPassing clouds.6 mph38%29.90 "Hg10 mi
12:58 PM82 °FScattered clouds.6 mph40%29.92 "Hg10 mi
11:58 AM78 °FSunny.6 mph48%29.93 "Hg10 mi
10:58 AM74 °FSunny.1 mph58%29.96 "Hg10 mi
9:58 AM70 °FSunny.2 mph69%29.97 "Hg10 mi
8:58 AM68 °FPartly sunny.3 mph78%29.97 "Hg10 mi
7:58 AM65 °FOvercast.5 mph84%29.96 "Hg10 mi
6:58 AM65 °FOvercast.2 mph88%29.96 "Hg10 mi
5:58 AM65 °FOvercast.3 mph90%29.94 "Hg10 mi
4:58 AM65 °FOvercast.No wind90%29.93 "Hg10 mi
Weather by CustomWeather, © 2015

See weather overviewHow to use our weather pages